Tracking 19832 objects as of 24-Aug-2019
HD Live streaming from Space Station
objects crossing your sky now

COSMOS 2251 DEB

Track COSMOS 2251 DEB now!
10-day predictions


NORAD ID: 34746
Int'l Code: 1993-036ZQ
Perigee: 670.6 km
Apogee: 704.4 km
Inclination: 74.0 °
Period: 98.4 minutes
Semi major axis: 7058 km
RCS: 0.0172 m2 (small)
Launch date: June 16, 1993
Source: Commonwealth of Independent States (former USSR) (CIS)
Launch site: PLESETSK MISSILE AND SPACE COMPLEX (PKMTR)

Note: This is SATELLITE DEBRIS
aabbcc
Your satellite tracking list
Your tracking list is empty




NASA's NSSDC Master Catalog

Two Line Element Set (TLE):
1 34746U 93036ZQ  19235.76097714 +.00000929 +00000-0 +18255-3 0  9990
2 34746 074.0291 349.2057 0023906 302.2617 208.4162 14.63973313555312
Source of the keplerian elements: AFSPC